Theta_e
334 326 323 321 321 319 315 311 309 304 307 312 309 311 310 309 305 306 305 303 300 299 298 297 297 298 298 299 299 300 301 302 303 304 305 306 306 307
325 324 315 316 314 313 312 311 310 308 304 309 309 309 309 307 306 305 305 303 301 298 297 297 297 297 298 298 298 298 298 299 299 300 302 304 306 306
317 314 313 313 311 309 310 310 308 307 303 307 308 308 307 305 305 305 305 303 303 299 298 297 297 297 297 297 298 297 296 297 297 298 298 300 303 305
311 310 309 307 308 309 304 308 306 307 304 303 306 305 304 304 303 303 302 302 302 300 298 297 297 297 297 297 296 294 295 294 294 295 297 298 299 302
311 309 307 306 306 306 306 306 306 305 305 303 302 303 303 302 301 300 300 299 299 300 298 297 297 297 297 296 295 294 293 293 293 294 295 296 296 298
306 306 303 304 307 305 305 305 305 304 304 301 300 300 299 299 296 295 293 296 296 298 300 297 297 299 298 297 296 293 292 292 293 294 295 295 294 296
302 303 304 303 297 299 305 305 305 303 302 299 298 296 293 293 292 294 292 293 294 298 297 298 299 300 300 297 295 291 291 291 292 293 295 295 295 296
301 302 297 294 292 291 291 289 294 302 300 299 298 294 292 292 293 292 291 290 288 296 295 295 299 298 298 297 291 290 290 290 291 292 295 295 296 295
301 297 296 297 295 294 290 289 289 289 288 293 296 293 291 292 292 290 290 291 289 293 294 292 298 293 295 295 292 290 290 290 291 293 294 295 294 293
298 297 299 295 297 297 295 295 296 294 292 292 293 293 293 293 292 290 290 290 291 295 293 288 292 290 293 294 292 290 289 289 290 290 294 294 294 293
297 300 300 298 291 293 299 295 294 288 290 289 289 289 289 289 289 289 287 285 286 288 286 287 288 287 289 288 291 289 288 288 289 289 292 293 293 293
296 296 293 295 288 289 294 291 286 287 287 288 288 288 288 290 288 289 290 286 285 286 285 285 286 287 285 289 287 289 288 287 288 288 289 292 293 292
293 294 292 288 288 288 291 293 287 287 285 288 288 289 289 288 288 289 288 287 285 285 287 286 285 286 287 286 288 287 287 285 286 286 288 289 291 291
292 293 289 288 288 287 288 286 286 286 289 288 289 288 287 287 288 290 287 289 288 286 286 287 285 285 285 286 285 288 288 286 286 285 285 287 288 287
292 289 287 287 286 286 286 286 285 289 288 288 287 287 288 290 289 289 290 290 289 289 287 287 287 287 287 286 286 286 286 286 286 285 285 284 284 285
287 287 287 286 287 286 286 287 290 290 289 288 288 288 291 291 291 292 291 291 289 288 288 288 287 287 286 287 286 285 285 283 285 285 285 284 285 285
286 286 287 286 286 288 288 288 288 289 288 287 288 288 289 290 290 291 289 289 286 286 286 288 288 288 286 285 285 285 285 284 285 284 284 281 282 284
286 286 285 285 286 287 288 287 288 287 288 288 288 288 288 289 288 288 288 287 285 285 285 286 287 287 286 285 285 285 284 283 284 283 283 280 279 281
285 285 286 287 287 288 287 287 287 287 288 288 288 287 287 287 287 287 287 286 285 285 285 286 286 286 283 280 283 285 283 283 282 281 280 279 278 279
287 286 286 287 288 287 287 287 287 287 287 287 286 286 288 286 287 286 285 286 285 284 283 283 283 284 282 280 280 282 285 282 280 278 278 279 280 281
287 287 288 288 288 288 289 288 288 288 287 287 286 286 286 286 286 286 285 284 284 283 281 281 284 284 286 285 281 280 282 284 283 281 280 278 277 277
288 288 288 288 288 288 288 287 287 287 286 286 285 285 286 287 286 285 286 284 283 282 282 285 287 287 284 281 279 279 280 282 283 283 283 282 280 277
288 287 288 288 288 288 288 287 286 286 286 286 286 285 286 286 286 286 285 284 283 283 283 283 284 285 283 282 281 281 281 281 281 279 280 281 281 281
Wind_Speed
8 10 8 7 5 4 1 3 3 6 6 4 3 5 3 4 5 8 11 11 14 8 8 13 16 18 18 19 22 23 25 26 26 26 27 26 26 26
10 12 8 6 6 5 4 2 3 3 4 1 2 2 4 5 5 9 10 11 6 4 6 10 15 17 17 19 20 22 23 25 26 26 25 26 27 25
11 11 10 10 8 6 4 4 2 5 5 5 2 2 4 6 8 8 9 9 8 6 9 13 11 15 16 16 18 21 24 24 25 26 27 27 26 24
14 12 13 9 9 7 4 5 6 5 5 6 5 4 5 6 7 9 7 8 10 7 11 12 13 14 13 11 10 17 20 24 26 27 27 27 26 24
14 13 14 11 11 9 8 7 6 4 4 4 5 4 5 6 7 8 9 10 9 13 8 9 14 14 13 6 10 16 24 27 28 28 25 23 22 22
10 10 9 9 11 9 8 7 5 4 4 3 4 5 5 4 5 6 7 8 10 10 7 12 16 8 9 10 12 22 25 28 29 28 23 18 16 16
11 10 10 8 12 7 7 8 7 5 4 3 4 4 5 3 4 4 6 9 9 5 7 9 10 8 9 10 14 23 27 28 29 29 22 18 16 17
13 11 11 13 13 15 13 16 9 5 5 4 3 4 6 4 3 5 5 5 6 4 9 8 7 8 9 6 17 23 26 29 29 28 21 19 16 19
14 11 11 8 9 10 11 10 8 7 4 3 4 4 3 3 4 5 7 7 8 9 7 7 6 7 7 7 16 23 25 29 31 30 18 17 15 16
12 12 12 13 11 12 11 8 7 6 5 3 4 4 3 4 5 5 8 7 8 4 6 4 6 7 7 5 16 24 26 29 30 32 23 14 12 11
10 11 11 11 11 7 10 6 5 4 5 1 1 4 3 2 2 4 3 6 6 2 5 4 4 7 3 1 7 21 24 28 27 30 27 17 10 10
8 8 9 12 13 7 9 8 5 4 3 2 2 2 3 3 2 4 5 5 5 3 3 7 4 6 5 1 4 9 10 23 25 27 31 24 14 8
9 9 8 18 14 10 2 6 7 7 4 3 3 3 3 2 2 1 0 3 3 2 7 4 3 5 3 5 3 5 9 11 10 13 21 28 21 12
10 8 10 17 14 11 7 10 10 6 3 2 2 3 2 1 1 1 2 2 1 1 4 5 3 4 4 4 4 5 5 10 9 9 10 13 22 27
9 13 19 17 14 9 12 10 6 4 4 3 2 2 1 2 3 4 5 6 5 2 2 5 5 5 3 4 4 6 4 7 10 7 9 11 10 7
16 12 11 9 8 8 6 5 4 4 3 3 2 2 2 1 2 1 1 3 2 3 4 5 7 7 4 5 6 6 7 7 7 8 8 10 11 12
15 10 8 7 7 6 5 5 5 5 4 3 3 3 2 2 3 4 4 2 3 4 3 1 3 8 8 12 6 7 7 8 9 8 9 12 13 12
10 10 7 6 7 6 6 6 5 5 5 4 3 3 3 2 3 3 2 3 3 4 4 3 3 2 3 9 19 6 7 7 8 10 9 12 12 11
9 7 8 7 7 7 6 5 5 5 6 4 3 4 2 3 2 3 3 2 2 4 4 5 6 5 5 6 5 19 7 7 8 10 10 11 12 10
8 9 8 7 6 7 6 6 6 6 5 5 4 4 2 2 3 3 3 3 4 5 5 6 7 7 8 8 6 9 15 8 8 9 10 11 11 18
8 8 9 7 7 7 6 6 5 5 5 4 4 4 2 3 4 4 5 6 6 6 6 6 5 4 7 8 8 9 10 18 11 8 7 9 9 9
9 9 8 7 7 7 7 6 6 6 6 5 4 3 2 4 4 4 3 5 6 5 4 4 4 6 8 9 9 10 8 9 15 17 15 8 1 5
9 9 8 7 7 7 7 6 6 5 5 5 5 4 2 4 4 4 4 6 6 5 5 6 6 8 8 8 9 8 11 10 8 10 10 25 27 26
Wind_Direction
157 156 172 167 156 159 160 149 203 238 247 139 202 141 256 325 18 337 317 351 314 287 305 315 320 319 319 318 318 317 314 311 309 305 302 298 290 286
162 165 149 147 153 157 162 156 219 270 249 255 199 335 341 319 326 325 318 302 304 284 320 318 319 319 316 319 319 322 318 313 310 306 302 298 294 286
156 155 152 150 152 147 166 197 196 208 240 277 302 283 319 304 320 321 321 320 325 353 354 320 307 300 303 305 314 322 318 315 312 309 304 300 299 292
151 155 151 155 153 170 139 187 196 195 242 261 288 306 304 316 315 310 323 332 324 349 323 309 302 302 299 302 322 328 325 322 314 305 299 296 293 290
155 157 158 158 162 172 181 178 196 194 220 251 278 304 299 327 313 332 326 327 314 331 301 298 315 300 301 316 316 344 331 325 323 318 304 289 280 287
138 140 139 159 170 167 173 180 177 201 206 237 267 277 304 324 319 318 323 321 328 319 324 338 301 355 333 349 342 344 331 328 326 318 307 295 277 281
135 143 153 126 84 113 172 174 182 197 196 224 251 269 278 290 311 331 313 323 322 322 320 331 331 337 345 344 357 338 334 332 331 325 309 298 281 284
147 138 124 117 99 90 87 60 44 204 201 231 251 265 276 297 321 324 315 325 329 291 328 325 323 342 340 346 358 340 340 338 336 330 319 297 284 288
149 141 137 143 143 127 95 88 79 71 53 353 266 256 281 304 329 308 317 316 308 311 317 312 341 329 337 337 359 348 348 346 345 344 323 306 289 287
145 143 150 156 160 150 145 151 167 167 175 198 229 251 337 358 329 307 306 304 296 297 5 297 336 317 325 330 358 357 355 354 353 354 347 318 301 288
137 146 153 161 124 104 152 130 129 79 105 130 296 310 324 357 320 305 319 322 325 360 21 314 328 313 297 318 354 2 358 356 358 5 4 1 59 48
128 128 138 135 126 134 135 146 145 140 154 158 166 190 189 175 231 315 329 330 330 304 23 344 327 344 317 336 23 6 359 358 0 7 15 11 18 73
145 146 129 132 134 136 116 144 141 136 157 173 170 182 182 152 105 194 54 307 336 295 6 324 311 333 279 307 356 2 8 359 359 4 13 20 38 53
145 140 127 128 128 125 121 118 124 129 145 169 170 136 99 94 27 309 207 259 163 230 311 326 296 320 308 309 346 343 20 8 2 7 17 19 38 47
130 127 132 131 131 117 128 139 152 141 139 119 118 109 154 152 217 235 222 219 198 192 22 344 334 316 332 347 346 359 335 20 6 8 28 29 31 26
111 119 124 130 111 113 135 156 127 121 129 128 131 139 196 162 200 341 20 190 161 143 83 30 11 19 359 30 21 25 27 32 1 8 33 43 41 44
123 127 136 137 131 148 154 140 132 139 128 135 144 119 87 79 38 22 6 33 45 8 32 19 76 67 59 25 42 33 39 45 28 15 41 56 42 43
127 139 144 139 145 163 154 136 128 133 134 137 142 104 72 77 82 67 70 29 35 22 9 347 335 220 167 73 30 47 53 48 44 39 44 66 60 44
145 143 135 140 164 157 140 141 137 126 132 138 124 93 57 81 87 84 50 41 48 57 33 9 4 353 71 77 54 17 64 65 65 59 56 58 67 52
129 139 138 156 162 138 143 149 135 134 127 125 92 88 97 93 76 95 86 34 49 50 48 28 30 32 53 68 79 50 41 77 81 84 81 77 75 71
135 141 142 156 146 143 139 117 119 113 115 112 111 109 21 110 80 66 76 53 42 56 57 61 64 13 105 107 88 73 62 64 70 88 90 88 86 86
139 140 142 140 133 132 116 124 124 129 128 117 105 112 23 100 96 97 85 82 73 72 74 64 58 85 82 92 97 97 90 81 68 69 69 64 203 108
133 134 129 126 126 134 137 135 137 126 116 124 129 115 35 101 107 96 82 87 88 85 84 83 80 77 81 89 103 107 96 78 78 76 71 83 87 93